Location: Pittsburgh
(40.4410°N, 79.9960°W)
Time: 21:48:03
(UTC-05:00)

Tiangong - Visible Passes

Search period start: 05 March 2026 00:00
Search period end: 15 March 2026 01:00
Orbit: 382 x 391 km, 41.5° (Epoch: 5 March)

Date Brightness Start Highest point End Pass type
(mag) Time Alt. Az. Time Alt. Az. Time Alt. Az.
10 Mar 0.6 06:16:00 10° S 06:17:52 15° SSE 06:19:43 10° ESE visible
11 Mar -1.0 06:52:07 10° SW 06:55:07 39° SSE 06:58:08 10° E visible
12 Mar -0.4 05:55:35 24° SSE 05:55:55 25° SSE 05:58:36 10° E visible
13 Mar -1.9 06:31:22 22° WSW 06:33:13 62° SSE 06:36:24 10° E visible
14 Mar -0.5 05:34:49 31° ESE 05:34:49 31° ESE 05:36:56 10° E visible
